Location: Rodson Ranch
(38.7188°N, 119.3202°W)
Time: 12:48:03
(UTC+00:00)

Cosmos 1726 Rocket - Pass Details

Date: 29 October 2020
Orbit: 603 x 629 km, 82.5° (Epoch: 01 December)

Event Time Altitude Azimuth Distance (km) Brightness Sun altitude
Rises 12:57:00 0° 347° (NNW) 2,922 6.9 -17.0°
Reaches altitude 10° 12:59:16 10° 344° (NNW) 2,012 6.0 -16.6°
Maximum altitude 13:03:37 56° 267° (W) 753 3.6 -15.7°
Drops below altitude 10° 13:07:58 10° 189° (S) 1,998 6.1 -14.9°
Sets 13:10:12 0° 185° (S) 2,900 7.0 -14.5°
